Location: Fontevrault
(47.1823°N, 0.0493°E)
Time: 09:49:17
(UTC+00:00)

Cosmos 1892 Rocket - Pass Details

Date: 16 June 2021
Orbit: 606 x 633 km, 82.5° (Epoch: 27 July)

Event Time Altitude Azimuth Distance (km) Brightness Sun altitude
Exits shadow 23:49:28 30° 230° (SW) 1,131 4.6 -19.4°
Maximum altitude 23:51:14 46° 284° (WNW) 848 4.3 -19.4°
Drops below altitude 10° 23:55:32 10° 358° (N) 2,014 7.4 -19.4°
Sets 23:57:52 0° 5° (N) 2,931 8.7 -19.4°
